Regional Weather Roundup
Issued by NWS

Home | Current Version | Previous Version | Text Only | Print | Product List | Glossary Off
Versions: 1 2 3 4 5 6 7 8 9 10 11 12 13 14 15 16 17 18 19 20 21 22 23 24 25

000
ASUS45 KPSR 061910
RWRAZ

ARIZONA HOURLY REGIONAL WEATHER ROUNDUP
NATIONAL WEATHER SERVICE PHOENIX AZ
1200 PM MST TUE DEC 06 2016

NOTE: FAIR INDICATES FEW OR NO CLOUDS BELOW 12,000 FEET WITH NO
SIGNIFICANT WEATHER AND/OR OBSTRUCTIONS TO VISIBILITY.

AZZ001>003-036-062000-
NORTHWEST ARIZONA

CITY           SKY/WX    TMP DP  RH WIND       PRES   REMARKS
KINGMAN        SUNNY     58  12  16 SW18G29   29.87F
$$

AZZ004>008-015-016-018-062000-
NORTH CENTRAL ARIZONA

CITY           SKY/WX    TMP DP  RH WIND       PRES   REMARKS
PRESCOTT       MOSUNNY   49  28  44 S14G20    29.93F
FLAGSTAFF      NOT AVBL
PAGE           SUNNY     47  19  33 E5        29.79F
$$

AZZ009>014-017-062000-
NORTHEAST ARIZONA

CITY           SKY/WX    TMP DP  RH WIND       PRES   REMARKS
WINSLOW        NOT AVBL
WINDOW ROCK    PTSUNNY   45  16  31 SW21G29   29.87F
$$

AZZ023-062000-
GREATER PHOENIX AREA

CITY           SKY/WX    TMP DP  RH WIND       PRES   REMARKS
PHOENIX        CLOUDY    61  27  27 VRB3      29.92F
GLENDALE       PTSUNNY   59  28  31 CALM      29.95F
DEER VALLEY    CLOUDY    58  26  29 CALM      29.93F
SCOTTSDALE     PTSUNNY   60  28  29 SE6       29.94F
CHANDLER       PTSUNNY   61  30  31 MISG      29.93F
$$

AZZ027-028-062000-
SOUTHWEST MARICOPA COUNTY AND PINAL COUNTY

CITY           SKY/WX    TMP DP  RH WIND       PRES   REMARKS
CASA GRANDE    NOT AVBL
$$

AZZ503-504-507>509-062000-
SOUTHEAST ARIZONA

CITY           SKY/WX    TMP DP  RH WIND       PRES   REMARKS
TUCSON         MOSUNNY   66  30  26 S15       29.96F
RYAN FIELD     SUNNY     66  32  28 S16G22    29.95
SAFFORD        MOSUNNY   57  33  40 VRB5      29.95F
$$

AZZ020-021-025-026-031-062000-
SOUTHWEST ARIZONA

CITY           SKY/WX    TMP DP  RH WIND       PRES   REMARKS
YUMA           PTSUNNY   66  49  54 SW5       29.90F
$$

CAZ031-033-041-043-047-048-061-062000-
SOUTHERN CALIFORNIA

CITY           SKY/WX    TMP DP  RH WIND       PRES   REMARKS
DOWNTOWN L.A.  CLOUDY    62  48  60 E3        30.00F
L.A. AIRPORT   PTSUNNY   62  49  62 E5        30.01F
SAN DIEGO      PTSUNNY   61  50  67 SW8       30.03F
BURBANK        MOSUNNY   59  46  62 CALM      30.00F
ONTARIO        PTSUNNY   57  45  64 SW3       30.01F HAZE
RIVERSIDE      CLOUDY    60  49  66 VRB3      30.01F
PALM SPRINGS   SUNNY     65  33  30 MISG      29.89F
EL CENTRO NAS  PTSUNNY   66  45  46 SE7       29.90F
IMPERIAL       MOSUNNY   65  48  54 SE7       29.89F
BLYTHE         MOSUNNY   62  44  51 S5        29.89F
$$

NVZ020-UTZ003-062000-
SOUTHERN NEVADA-UTAH

CITY           SKY/WX    TMP DP  RH WIND       PRES   REMARKS
LAS VEGAS      NOT AVBL
SALT LAKE CITY NOT AVBL
$$

NMZ009-TXZ055-062000-
NEW MEXICO-WEST TEXAS

CITY           SKY/WX    TMP DP  RH WIND       PRES   REMARKS
ALBUQUERQUE    PTSUNNY   48  18  30 S8        29.88F
EL PASO        PTSUNNY   60  34  37 SW17      29.97F
$$


........................KEY........................
SKY/WX - SKY CONDITION/WEATHER
TMP    - TEMPERATURE IN FAHRENHEIT
DP     - DEW POINT IN FAHRENHEIT
RH     - RELATIVE HUMIDITY IN PERCENT
WIND   - DIRECTION AND SPEED IN MILES PER HOUR (MPH)
VRB    - VARIABLE WIND DIRECTION
PRES   - MEAN SEA LEVEL PRESSURE IN INCHES OF MERCURY
         F - FALLING PRESSURE   R - RISING PRESSURE
         S - STEADY PRESSURE
VSB    - VISIBILITY IN MILES
HX     - HEAT INDEX IN FAHRENHEIT
WCI    - WIND CHILL INDEX IN FAHRENHEIT
TC     - TEMPERATURE IN CELSIUS WHICH IS ALSO KNOWN AS
         TEMPERATURE IN CENTIGRADE
AFB    - AIR FORCE BASE
         LUKE AFB IS LUKE AIR FORCE BASE
         DAVIS-MONTHAN IS DAVIS-MONTHAN AIR FORCE BASE
NAS    - NAVAL AIR STATION
         EL CENTRO NAS IS EL CENTRO NAVAL AIR STATION
N/A    - NOT AVAILABLE





USA.gov is the U.S. government's official web portal to all federal, state and local government web resources and services.